Presure
153 121 105 146 155 142 162 106 161 102 135 114 117 128 134 133 92 95 102 97 94 90 113 133 90 97 94 92 94 91 95 158 94 94 172 111 94 96 108 137 118 160 118
138 143 171 150 125 151 158 159 121 111 165 107 104 126 133 137 144 118 148 138 94 94 95 95 103 169 98 90 102 95 96 97 164 96 97 97 97 100 108 164 70 169 163
135 183 122 137 127 121 123 152 133 137 104 157 143 113 102 122 135 106 97 135 137 112 136 111 138 90 90 174 108 96 96 164 167 170 171 172 169 120 112 173 178 178 164
133 179 142 139 132 136 143 127 148 134 102 129 145 143 147 123 131 125 109 128 119 134 108 143 161 159 138 163 166 174 167 162 167 167 161 156 153 158 167 165 157 158 152
149 129 143 142 130 142 147 139 134 128 102 99 141 128 116 132 159 127 134 128 117 102 110 123 115 150 152 130 137 150 139 145 153 171 174 164 165 135 138 152 162 162 160
160 125 172 178 134 133 136 130 130 110 127 136 144 106 103 121 140 138 103 122 98 123 122 116 109 112 117 120 119 131 151 146 152 152 151 151 175 178 172 160 162 162 162
158 134 175 131 136 131 134 134 139 146 139 123 142 100 98 120 105 102 94 104 120 117 113 107 118 142 138 127 116 127 151 150 143 142 140 141 139 154 179 189 89 186 164
178 161 189 123 122 125 136 130 125 136 138 132 131 141 140 125 138 123 104 116 111 115 104 110 97 103 121 115 133 132 169 143 142 134 137 172 150 167 146 90 143 80 77
179 188 184 193 180 192 126 126 126 134 183 136 127 95 183 182 145 100 100 129 97 103 119 111 119 100 126 127 131 112 134 144 144 133 133 155 160 161 162 80 80 80 89
98 180 176 187 188 203 170 190 178 186 181 132 131 132 144 122 129 105 98 100 99 118 114 99 106 125 127 124 129 125 130 137 142 134 140 157 172 177 120 81 84 78 83
182 94 99 181 187 201 201 169 178 174 178 120 126 113 108 125 153 135 116 125 121 93 100 125 121 122 122 125 125 138 161 175 157 151 165 172 164 161 169 79 78 87 87
192 193 149 90 192 184 193 197 171 176 176 174 177 149 179 187 139 191 192 187 96 167 128 127 120 110 120 153 143 138 148 174 171 165 169 158 171 105 113 79 92 83 81
175 198 154 197 95 111 193 211 198 197 165 179 183 180 196 175 108 110 97 179 141 129 124 122 117 116 177 174 171 172 176 175 166 152 172 170 171 169 168 98 78 81 85
182 184 195 181 209 184 96 110 100 200 192 201 173 177 177 199 181 182 180 192 185 184 170 180 188 171 175 178 176 173 179 177 178 187 175 171 168 98 94 84 86 84 86
197 188 173 171 201 124 196 186 94 196 199 203 203 196 182 172 192 198 176 184 187 189 185 180 183 186 180 173 177 143 148 115 102 178 177 175 172 118 96 90 121 94 120
199 198 192 186 185 192 206 188 201 170 96 92 95 96 122 154 173 196 193 171 171 188 182 179 176 177 162 181 117 176 122 164 175 175 153 97 94 92 96 120 88 145 107
204 207 206 205 178 172 170 84 174 175 185 131 191 80 185 135 190 183 173 108 178 169 165 178 176 110 177 108 109 109 103 98 101 156 152 96 96 86 122 93 92 114 93
234 218 213 215 206 198 172 170 191 196 164 182 163 178 189 193 184 192 203 83 97 105 112 150 112 167 175 177 100 162 101 101 84 94 92 108 175 111 170 114 175 140 161
266 290 223 208 209 194 178 188 199 190 177 172 175 177 177 196 193 195 182 90 141 144 155 90 93 102 123 97 91 95 96 160 156 154 153 129 133 160 91 91 125 177 171
253 247 274 273 215 203 185 198 212 202 189 188 196 177 198 173 171 196 193 193 186 201 198 204 190 137 84 89 116 94 124 176 93 150 174 174 147 86 155 183 188 180 183
243 268 243 257 289 104 185 158 194 173 194 206 191 189 206 193 183 181 178 168 182 197 181 181 197 202 189 189 186 183 174 172 174 173 176 181 181 184 177 185 186 187 199
231 234 262 247 259 289 188 163 179 184 188 188 195 79 154 158 178 187 187 200 202 165 169 176 184 184 201 197 185 185 187 183 184 162 183 183 189 189 177 196 178 175 184
225 225 223 260 245 287 195 197 185 168 171 178 196 177 165 170 168 202 201 185 188 185 165 164 181 185 179 185 180 189 182 190 197 192 193 189 185 183 188 186 182 190 168
250 223 227 221 239 240 290 197 198 177 188 77 182 161 166 161 200 203 193 197 197 170 201 203 180 170 169 177 172 178 179 179 177 181 188 187 191 158 183 141 162 175 171
271 279 220 225 232 245 268 255 214 182 204 189 134 176 142 162 132 142 161 192 190 191 159 197 186 185 180 180 183 99 171 173 191 181 182 187 189 188 190 198 156 176 164
321 224 244 215 221 271 230 241 186 200 186 172 183 181 175 161 146 151 176 160 193 207 214 218 223 208 194 187 191 190 194 188 186 191 198 204 204 200 209 184 151 177 189
Wind_Speed
34 30 25 33 34 29 32 22 30 18 27 20 21 21 20 19 13 14 15 15 15 13 13 14 12 15 15 15 16 15 17 26 18 18 34 22 19 20 23 30 25 38 22
34 35 41 35 30 34 33 33 26 22 31 21 19 24 22 21 21 22 20 17 18 18 18 18 18 19 20 16 20 20 21 22 28 22 22 22 23 24 26 39 9 42 42
35 38 33 34 32 30 30 33 30 30 22 32 30 24 21 23 22 19 19 20 19 23 20 18 17 17 18 24 23 24 24 27 29 32 34 36 36 29 21 40 42 43 41
37 40 39 37 34 34 35 32 35 31 24 29 32 32 31 26 25 25 24 22 23 22 25 22 22 20 22 24 25 28 28 29 31 33 33 33 33 35 38 40 39 40 39
42 36 43 39 36 38 39 36 36 33 25 24 34 31 27 30 34 27 25 25 24 24 26 24 26 22 24 25 26 26 26 29 29 35 37 36 37 33 34 37 41 42 43
48 36 46 44 39 37 37 36 36 31 36 36 38 27 25 30 34 32 25 28 22 28 27 28 27 28 27 27 27 29 29 30 31 32 33 34 43 44 43 42 44 45 46
44 40 47 39 42 38 39 37 39 40 39 36 40 27 25 33 26 26 23 26 30 31 30 29 31 31 30 32 32 32 33 33 32 33 34 35 36 39 42 43 27 45 44
49 46 49 35 35 36 43 37 37 39 39 41 38 41 41 37 40 34 29 31 32 33 29 31 27 31 33 34 37 36 38 36 35 35 35 44 41 43 42 28 44 30 34
51 51 49 50 49 50 39 37 38 43 47 40 38 27 49 48 45 29 28 39 29 32 36 35 39 31 38 39 41 36 39 41 41 38 39 42 43 44 44 28 30 33 35
37 52 51 51 50 52 50 49 49 48 48 41 41 42 46 40 39 35 29 31 32 40 38 35 36 41 42 42 43 43 43 43 45 41 44 46 46 46 37 31 33 36 38
57 34 37 53 52 52 53 51 51 52 50 43 45 43 40 45 49 47 39 43 41 34 39 45 43 42 43 45 45 49 49 49 52 51 50 48 49 48 49 33 38 40 42
60 58 50 32 54 51 52 55 53 53 53 52 52 48 52 51 49 52 52 51 38 56 48 48 45 42 46 53 53 52 52 51 53 53 52 50 52 45 43 36 45 42 44
54 60 56 57 39 40 55 55 56 56 55 55 53 53 52 54 39 37 36 51 52 49 49 49 48 47 55 55 55 55 54 54 53 52 53 52 52 53 54 48 42 43 49
60 54 64 57 56 58 35 41 41 56 56 56 56 56 54 53 54 54 53 53 52 53 54 53 53 55 55 57 57 57 57 57 55 54 55 54 53 51 52 45 48 47 54
69 65 62 57 60 36 59 57 40 54 54 54 53 54 56 56 52 53 55 54 53 53 55 54 54 56 57 57 59 51 53 49 49 55 55 56 57 55 56 56 54 65 57
72 71 68 61 57 58 56 59 58 53 42 35 39 42 41 45 57 53 55 56 53 54 55 55 55 55 56 59 48 60 50 57 57 57 56 53 53 55 60 55 61 64 65
76 76 75 72 63 60 60 26 57 58 53 40 57 24 48 37 57 55 53 47 60 55 54 57 58 47 58 45 45 47 47 49 52 55 58 57 56 53 62 64 66 56 70
84 81 79 77 72 64 64 62 65 61 61 58 54 59 58 58 60 56 54 38 41 46 48 56 51 60 60 61 45 60 50 53 46 55 56 60 66 65 65 67 68 66 69
75 83 84 76 72 64 64 70 66 67 63 65 63 63 64 61 60 59 61 49 52 56 60 44 46 54 58 47 44 49 52 63 64 64 65 64 65 65 62 67 61 71 71
76 73 76 87 79 66 68 63 65 69 64 67 61 67 60 67 67 63 61 58 59 57 59 60 63 52 42 47 54 51 60 70 56 67 70 71 65 53 71 76 78 74 74
73 73 73 72 86 31 72 64 56 68 64 67 67 67 59 62 65 66 65 64 60 59 61 60 59 64 65 67 70 72 73 73 74 73 73 75 75 76 73 79 81 78 80
77 74 71 74 74 85 70 71 72 64 72 76 67 30 63 61 70 70 68 65 63 63 64 62 63 62 65 69 71 74 76 78 80 71 79 76 78 79 76 84 78 74 73
80 78 72 74 76 79 79 80 77 77 77 84 73 70 59 59 64 67 66 65 68 65 69 68 64 65 66 67 70 74 75 76 80 80 80 76 76 75 77 77 76 74 71
85 81 78 73 77 78 85 86 89 87 81 31 79 60 62 52 68 64 65 65 67 59 65 67 68 68 70 72 74 76 78 77 78 80 78 78 79 64 73 67 57 63 66
84 91 79 79 75 81 81 82 95 89 90 85 38 75 43 64 55 53 58 70 65 68 57 75 70 70 71 73 77 47 77 78 88 79 82 80 79 75 82 84 62 73 73
43 71 91 80 80 84 78 96 85 93 89 73 83 86 78 57 48 59 55 60 71 75 74 74 75 77 76 76 82 84 85 86 85 89 91 93 92 85 86 81 68 76 80
Wind_Direction
252 241 248 246 244 239 250 239 243 236 244 238 240 248 249 246 233 234 238 237 243 252 262 268 269 268 267 271 271 268 269 260 270 274 257 279 280 283 281 268 276 265 278
248 247 248 246 242 246 243 244 241 240 242 238 238 251 253 254 255 243 256 255 244 249 252 253 259 283 267 270 273 274 277 278 267 278 279 282 283 287 287 270 307 263 265
247 250 243 243 244 242 246 241 239 246 242 245 248 243 244 251 257 246 244 256 258 256 266 267 268 262 267 275 272 274 274 272 269 267 267 267 267 277 275 268 267 266 271
247 250 246 243 246 244 246 249 247 242 241 247 248 250 251 250 254 252 251 256 257 262 263 269 272 268 270 272 272 270 272 274 271 270 272 275 277 276 273 275 277 277 279
247 243 246 245 246 247 246 249 248 253 241 243 252 247 250 253 256 251 256 258 260 263 265 265 270 270 271 277 278 275 278 277 279 272 270 274 273 280 281 281 276 276 277
244 243 252 252 245 245 245 249 248 242 250 254 255 248 250 254 257 257 255 257 259 262 262 265 272 272 274 275 275 277 277 278 279 280 281 281 270 269 273 281 280 280 279
249 247 248 247 249 245 247 247 251 254 250 251 253 250 252 255 250 252 254 257 259 261 264 270 270 271 274 278 276 279 279 277 281 281 283 283 283 282 275 273 280 275 277
249 250 254 242 242 244 251 247 250 254 250 255 252 255 256 255 255 249 256 256 260 260 268 268 275 275 276 277 276 279 274 279 278 279 280 275 278 278 280 272 282 292 294
250 255 253 256 251 252 247 244 246 252 250 248 251 248 252 252 257 257 260 259 270 268 263 267 269 273 273 275 278 278 280 278 277 278 280 279 278 277 278 284 288 294 295
243 251 249 253 255 252 251 251 250 252 251 245 248 251 250 253 254 254 256 258 259 263 265 268 269 271 273 276 277 279 280 281 278 279 279 280 279 279 283 287 289 298 298
250 245 245 249 252 254 252 249 251 250 252 243 247 247 250 255 257 258 255 257 258 263 264 264 269 271 274 275 275 276 274 270 276 278 277 278 279 280 280 291 296 293 295
252 252 253 248 253 251 255 250 250 251 251 252 253 250 255 255 255 257 257 256 256 261 260 263 268 269 273 271 272 274 274 271 270 273 273 278 278 279 285 301 286 296 300
243 250 252 253 248 248 253 252 250 251 249 251 252 253 253 256 257 254 254 256 259 259 261 264 268 269 267 268 269 270 269 270 272 276 274 277 277 278 278 282 297 296 298
245 239 250 244 251 248 244 247 244 249 250 251 252 253 252 253 256 259 259 257 256 256 259 261 260 266 266 267 268 269 270 271 272 272 277 278 278 280 282 291 293 295 296
249 247 248 245 249 251 253 251 246 251 249 251 251 250 251 253 253 252 260 259 257 256 257 259 260 260 262 266 267 268 269 269 273 273 274 275 276 280 283 288 289 289 293
246 247 245 243 242 247 241 251 251 250 246 253 254 252 254 254 251 251 252 259 258 255 258 260 261 262 263 263 266 267 267 270 273 274 274 276 280 282 281 289 291 285 290
243 244 246 245 242 248 249 255 249 249 250 254 251 268 253 259 250 250 252 260 257 259 260 260 263 264 264 265 266 266 267 269 272 273 274 274 282 287 283 287 287 294 291
240 240 241 241 239 238 249 246 249 247 246 249 250 251 254 253 251 252 252 270 267 270 268 262 264 265 266 266 267 269 270 270 281 274 278 279 276 280 282 283 284 286 284
239 236 237 239 238 236 238 249 249 249 248 250 249 251 252 252 251 251 250 273 261 260 261 267 269 268 267 267 266 268 270 273 274 276 275 277 279 282 283 283 293 286 287
238 236 234 232 235 231 236 243 243 245 252 253 247 249 249 250 251 253 253 252 251 258 260 263 260 263 269 270 268 269 270 270 272 275 277 278 282 293 284 286 286 286 288
237 234 233 230 230 238 236 245 245 246 257 253 247 248 246 250 251 252 252 251 253 253 254 258 264 264 262 261 262 265 271 273 273 275 277 277 279 281 284 285 284 286 287
239 236 230 228 227 224 233 245 240 239 245 245 246 269 254 252 250 252 252 253 254 255 256 257 260 262 266 265 264 265 266 268 270 277 277 278 278 278 282 279 286 289 290
236 235 230 226 224 222 232 225 232 250 248 244 237 247 254 255 251 249 250 253 255 254 255 259 259 261 262 264 266 269 269 273 275 274 275 277 277 277 278 281 283 287 289
229 234 231 227 225 219 220 228 223 240 234 272 243 259 255 256 248 247 248 251 252 259 256 257 256 259 262 265 267 269 271 274 275 276 278 279 281 285 286 281 286 290 286
222 222 230 226 222 219 219 224 213 238 228 237 243 252 251 253 259 258 257 250 257 261 269 262 260 259 262 266 268 284 274 276 275 279 281 283 284 287 288 288 283 295 288
233 224 223 227 223 217 217 206 236 221 235 251 246 252 262 261 256 264 248 260 260 265 265 265 261 259 262 263 267 269 273 273 277 279 282 283 285 288 289 290 281 290 293